St. Catharines Glass Ave

*Note: All times are displayed in the local standard time of the station location.
**Rain - Equipment is designed to accurately record liquid precipitation; under conditions when precipitation is not in liquid form, the data displayed may not properly reflect rainfall values.

Date Max Temp
(°C)
Min Temp
(°C)
Avg Temp
(°C)
Rain (mm) Avg RH (%)
Fri, Feb 15, 2019 5.1 -3.9 1.0 2.2 74.3
Thu, Feb 14, 2019 3.5 -4.0 -0.7 0.0 71.6
Wed, Feb 13, 2019 1.4 -4.0 -2.1 0.2 75.8
Tue, Feb 12, 2019 2.7 -4.9 -2.0 15.2 86.1
Mon, Feb 11, 2019 -1.6 -4.4 -3.0 0.0 72.0
Sun, Feb 10, 2019 -2.2 -9.2 -5.5 0.0 70.8
Sat, Feb 09, 2019 -3.6 -9.5 -6.6 0.0 62.4
DateTime Avg Temp (°C) Rain (mm) RH (%)
Sat, Feb 16, 2019 16:00 -1.3 0.0 56.9
Sat, Feb 16, 2019 15:00 -1.7 0.0 58.2
Sat, Feb 16, 2019 14:00 -2.0 0.0 59.3
Sat, Feb 16, 2019 13:00 -2.5 0.0 59.2
Sat, Feb 16, 2019 12:00 -2.8 0.0 62.5
Sat, Feb 16, 2019 11:00 -3.2 0.0 63.0
Sat, Feb 16, 2019 10:00 -3.2 0.0 62.8
Sat, Feb 16, 2019 09:00 -3.3 0.0 61.3
Sat, Feb 16, 2019 08:00 -4.0 0.0 63.5
Sat, Feb 16, 2019 07:00 -3.7 0.0 68.8
Sat, Feb 16, 2019 06:00 -2.9 0.0 68.6
Sat, Feb 16, 2019 05:00 -3.1 0.0 76.8
Sat, Feb 16, 2019 04:00 -3.3 0.0 76.8
Sat, Feb 16, 2019 03:00 -3.4 0.0 75.8
Sat, Feb 16, 2019 02:00 -3.4 0.0 72.4
Sat, Feb 16, 2019 01:00 -3.6 0.0 71.0
Sat, Feb 16, 2019 00:00 -3.7 0.0 69.3
Fri, Feb 15, 2019 23:00 -3.8 0.0 68.0
Fri, Feb 15, 2019 22:00 -3.5 0.0 67.1
Fri, Feb 15, 2019 21:00 -3.0 0.0 64.3
Fri, Feb 15, 2019 20:00 -2.1 0.0 67.0
Fri, Feb 15, 2019 19:00 -1.6 0.0 64.5
Fri, Feb 15, 2019 18:00 -1.0 0.0 64.4
Fri, Feb 15, 2019 17:00 -0.2 0.0 63.2
Fri, Feb 15, 2019 16:00 0.4 0.0 64.4
Fri, Feb 15, 2019 15:00 0.7 0.0 69.2
Fri, Feb 15, 2019 14:00 1.9 0.0 64.4
Fri, Feb 15, 2019 13:00 2.6 0.0 58.9
Fri, Feb 15, 2019 12:00 3.0 0.0 64.8
Fri, Feb 15, 2019 11:00 3.7 0.0 72.4
Fri, Feb 15, 2019 10:00 4.7 0.0 80.3
Fri, Feb 15, 2019 09:00 4.0 0.0 88.0
Fri, Feb 15, 2019 08:00 4.2 0.0 88.1
Fri, Feb 15, 2019 07:00 4.0 0.0 89.9
Fri, Feb 15, 2019 06:00 4.1 1.0 90.4
Fri, Feb 15, 2019 05:00 4.3 0.4 88.2
Fri, Feb 15, 2019 04:00 4.6 0.4 78.6
Fri, Feb 15, 2019 03:00 0.7 0.4 87.7
Fri, Feb 15, 2019 02:00 0.3 0.0 85.1
Fri, Feb 15, 2019 01:00 0.1 0.0 85.6
Fri, Feb 15, 2019 00:00 0.1 0.0 84.1
Thu, Feb 14, 2019 23:00 -0.3 0.0 84.1
Thu, Feb 14, 2019 22:00 -0.6 0.0 85.0
Thu, Feb 14, 2019 21:00 -0.8 0.0 83.3
Thu, Feb 14, 2019 20:00 -1.0 0.0 83.4
Thu, Feb 14, 2019 19:00 0.7 0.0 69.2
Thu, Feb 14, 2019 18:00 1.8 0.0 62.1
Thu, Feb 14, 2019 17:00 2.7 0.0 58.1


asterix Register now to access more data! asterix